• en Suisse
  • Liste des pays
  • À 7 jours
  • Température de l'eau
  • Carte satellitaire
  • Carte météo
  • Widgets météo
  • user-avatar
    Se connecter

    Météo par heure à Ali Sabieh

    Ce jour, 17 Octobre, Mardi

    Heure Température Précipitation Vent Pression Humidité
    00:00 +29°C° 0 mm 2 m/s 697 mmHg 51%
    01:00 +28°C° 0 mm 2 m/s 697 mmHg 53%
    02:00 +28°C° 0 mm 2 m/s 696 mmHg 55%
    03:00 +28°C° 0 mm 2 m/s 696 mmHg 58%
    04:00 +27°C° 0 mm 2 m/s 696 mmHg 59%
    05:00 +27°C° 0 mm 2 m/s 697 mmHg 61%
    06:00 +27°C° 0 mm 2 m/s 697 mmHg 63%
    07:00 +28°C° 0 mm 2 m/s 697 mmHg 56%
    08:00 +29°C° 0 mm 2 m/s 698 mmHg 49%
    09:00 +30°C° 0 mm 2 m/s 698 mmHg 43%
    10:00 +31°C° 0 mm 2 m/s 698 mmHg 39%
    11:00 +34°C° 0 mm 2 m/s 698 mmHg 35%
    12:00 +35°C° 0 mm 2 m/s 698 mmHg 30%
    13:00 +35°C° 0 mm 3 m/s 697 mmHg 29%
    14:00 +36°C° 0 mm 3 m/s 697 mmHg 28%
    15:00 +36°C° 0 mm 3 m/s 696 mmHg 27%
    16:00 +36°C° 0 mm 4 m/s 696 mmHg 31%
    17:00 +35°C° 0 mm 4 m/s 696 mmHg 36%
    18:00 +34°C° 0 mm 5 m/s 696 mmHg 40%
    19:00 +33°C° 0 mm 5 m/s 696 mmHg 44%
    20:00 +32°C° 0 mm 4 m/s 696 mmHg 48%
    21:00 +30°C° 0 mm 4 m/s 696 mmHg 51%
    22:00 +30°C° 0 mm 4 m/s 696 mmHg 52%
    23:00 +29°C° 0 mm 3 m/s 696 mmHg 52%

    Demain, 18 Octobre, Mercredi

    Heure Température Précipitation Vent Pression Humidité
    00:00 +29°C° 0 mm 3 m/s 696 mmHg 53%
    01:00 +29°C° 0 mm 3 m/s 696 mmHg 55%
    02:00 +28°C° 0 mm 3 m/s 696 mmHg 57%
    03:00 +28°C° 0 mm 2 m/s 696 mmHg 59%
    04:00 +27°C° 0 mm 2 m/s 696 mmHg 61%
    05:00 +27°C° 0 mm 2 m/s 696 mmHg 63%
    06:00 +27°C° 0 mm 2 m/s 697 mmHg 64%
    07:00 +28°C° 0 mm 2 m/s 697 mmHg 58%
    08:00 +29°C° 0 mm 2 m/s 698 mmHg 52%
    09:00 +30°C° 0 mm 2 m/s 698 mmHg 45%
    10:00 +31°C° 0 mm 2 m/s 698 mmHg 41%
    11:00 +34°C° 0 mm 2 m/s 698 mmHg 37%
    12:00 +35°C° 0 mm 3 m/s 697 mmHg 32%
    13:00 +35°C° 0 mm 3 m/s 697 mmHg 32%
    14:00 +36°C° 0 mm 4 m/s 696 mmHg 31%
    15:00 +36°C° 0 mm 4 m/s 695 mmHg 31%
    16:00 +35°C° 0 mm 5 m/s 695 mmHg 35%
    17:00 +34°C° 0 mm 5 m/s 695 mmHg 40%
    18:00 +33°C° 0 mm 6 m/s 695 mmHg 44%
    19:00 +32°C° 0 mm 5 m/s 696 mmHg 48%
    20:00 +30°C° 0 mm 5 m/s 696 mmHg 51%
    21:00 +30°C° 0 mm 4 m/s 697 mmHg 54%
    22:00 +29°C° 0 mm 4 m/s 697 mmHg 54%
    23:00 +29°C° 0 mm 3 m/s 697 mmHg 55%

    Après-demain, 19 Octobre, Jeudi

    Heure Température Précipitation Vent Pression Humidité
    00:00 +29°C° 0 mm 3 m/s 697 mmHg 55%
    01:00 +28°C° 0 mm 3 m/s 696 mmHg 57%
    02:00 +28°C° 0 mm 3 m/s 696 mmHg 58%
    03:00 +27°C° 0 mm 3 m/s 696 mmHg 60%
    04:00 +27°C° 0 mm 2 m/s 696 mmHg 61%
    05:00 +27°C° 0 mm 2 m/s 696 mmHg 62%
    06:00 +26°C° 0 mm 1 m/s 697 mmHg 63%
    07:00 +28°C° 0 mm 2 m/s 697 mmHg 56%
    08:00 +29°C° 0 mm 2 m/s 698 mmHg 48%
    09:00 +30°C° 0 mm 3 m/s 699 mmHg 41%
    10:00 +31°C° 0 mm 3 m/s 698 mmHg 37%
    11:00 +34°C° 0 mm 3 m/s 698 mmHg 33%
    12:00 +35°C° 0 mm 4 m/s 698 mmHg 28%
    13:00 +35°C° 0 mm 4 m/s 697 mmHg 28%
    14:00 +36°C° 0 mm 5 m/s 697 mmHg 28%
    15:00 +36°C° 0 mm 5 m/s 696 mmHg 28%
    16:00 +35°C° 0 mm 5 m/s 696 mmHg 32%
    17:00 +34°C° 0 mm 6 m/s 696 mmHg 36%
    18:00 +33°C° 0 mm 6 m/s 696 mmHg 40%
    19:00 +32°C° 0 mm 5 m/s 697 mmHg 42%
    20:00 +30°C° 0 mm 5 m/s 697 mmHg 45%
    21:00 +29°C° 0 mm 4 m/s 698 mmHg 47%
    22:00 +29°C° 0 mm 4 m/s 698 mmHg 51%
    23:00 +28°C° 0 mm 4 m/s 697 mmHg 55%

    20 Octobre, Vendredi

    Heure Température Précipitation Vent Pression Humidité
    00:00 +28°C° 0 mm 4 m/s 697 mmHg 59%
    01:00 +27°C° 0 mm 3 m/s 697 mmHg 61%
    02:00 +27°C° 0 mm 2 m/s 697 mmHg 63%
    03:00 +26°C° 0 mm 2 m/s 696 mmHg 66%
    04:00 +26°C° 0 mm 1 m/s 697 mmHg 66%
    05:00 +26°C° 0 mm 1 m/s 697 mmHg 67%
    06:00 +26°C° 0 mm 1 m/s 697 mmHg 68%
    07:00 +27°C° 0 mm 1 m/s 698 mmHg 60%
    08:00 +28°C° 0 mm 2 m/s 699 mmHg 51%
    09:00 +29°C° 0 mm 2 m/s 699 mmHg 43%
    10:00 +31°C° 0 mm 3 m/s 699 mmHg 38%
    11:00 +33°C° 0 mm 3 m/s 699 mmHg 34%
    12:00 +35°C° 0 mm 4 m/s 698 mmHg 29%
    13:00 +35°C° 0 mm 4 m/s 698 mmHg 28%
    14:00 +35°C° 0 mm 5 m/s 697 mmHg 27%
    15:00 +36°C° 0 mm 5 m/s 697 mmHg 27%
    16:00 +35°C° 0 mm 5 m/s 697 mmHg 30%
    17:00 +34°C° 0 mm 5 m/s 697 mmHg 33%
    18:00 +33°C° 0 mm 5 m/s 697 mmHg 36%
    19:00 +32°C° 0 mm 5 m/s 698 mmHg 39%
    20:00 +30°C° 0 mm 4 m/s 698 mmHg 42%
    21:00 +30°C° 0 mm 3 m/s 698 mmHg 45%
    22:00 +29°C° 0 mm 3 m/s 698 mmHg 48%
    23:00 +28°C° 0 mm 3 m/s 698 mmHg 51%

    21 Octobre, Samedi

    Heure Température Précipitation Vent Pression Humidité
    00:00 +28°C° 0 mm 3 m/s 697 mmHg 54%
    01:00 +27°C° 0 mm 3 m/s 697 mmHg 57%
    02:00 +27°C° 0 mm 2 m/s 697 mmHg 59%
    03:00 +26°C° 0 mm 2 m/s 697 mmHg 62%
    04:00 +26°C° 0 mm 2 m/s 697 mmHg 64%
    05:00 +26°C° 0 mm 2 m/s 697 mmHg 65%
    06:00 +26°C° 0 mm 2 m/s 698 mmHg 67%
    07:00 +27°C° 0 mm 2 m/s 698 mmHg 60%
    08:00 +28°C° 0 mm 3 m/s 699 mmHg 53%
    09:00 +29°C° 0 mm 3 m/s 699 mmHg 45%
    10:00 +31°C° 0 mm 3 m/s 699 mmHg 40%
    11:00 +33°C° 0 mm 4 m/s 698 mmHg 35%
    12:00 +35°C° 0 mm 4 m/s 698 mmHg 29%
    13:00 +35°C° 0 mm 5 m/s 698 mmHg 28%
    14:00 +36°C° 0 mm 5 m/s 697 mmHg 27%
    15:00 +36°C° 0 mm 6 m/s 697 mmHg 27%
    16:00 +35°C° 0 mm 6 m/s 697 mmHg 29%
    17:00 +34°C° 0 mm 5 m/s 697 mmHg 32%
    18:00 +33°C° 0 mm 5 m/s 697 mmHg 35%
    19:00 +32°C° 0 mm 5 m/s 697 mmHg 37%
    20:00 +30°C° 0 mm 4 m/s 698 mmHg 39%
    21:00 +30°C° 0 mm 3 m/s 698 mmHg 41%
    22:00 +29°C° 0 mm 3 m/s 698 mmHg 44%
    23:00 +29°C° 0 mm 3 m/s 697 mmHg 47%

    22 Octobre, Dimanche

    Heure Température Précipitation Vent Pression Humidité
    00:00 +28°C° 0 mm 3 m/s 697 mmHg 50%
    01:00 +28°C° 0 mm 2 m/s 697 mmHg 53%
    02:00 +27°C° 0 mm 2 m/s 696 mmHg 55%
    03:00 +27°C° 0 mm 2 m/s 696 mmHg 58%
    04:00 +26°C° 0 mm 2 m/s 696 mmHg 59%
    05:00 +26°C° 0 mm 1 m/s 697 mmHg 60%
    06:00 +26°C° 0 mm 1 m/s 697 mmHg 61%
    07:00 +27°C° 0 mm 2 m/s 698 mmHg 54%
    08:00 +28°C° 0 mm 2 m/s 698 mmHg 46%
    09:00 +30°C° 0 mm 2 m/s 699 mmHg 39%
    10:00 +31°C° 0 mm 3 m/s 698 mmHg 35%
    11:00 +34°C° 0 mm 3 m/s 698 mmHg 31%
    12:00 +35°C° 0 mm 4 m/s 698 mmHg 26%
    13:00 +35°C° 0 mm 4 m/s 697 mmHg 26%
    14:00 +36°C° 0 mm 5 m/s 697 mmHg 26%
    15:00 +36°C° 0 mm 5 m/s 696 mmHg 26%
    16:00 +35°C° 0 mm 5 m/s 696 mmHg 29%
    17:00 +34°C° 0 mm 5 m/s 696 mmHg 31%
    18:00 +33°C° 0 mm 5 m/s 696 mmHg 34%
    19:00 +33°C° 0 mm 5 m/s 697 mmHg 35%
    20:00 +32°C° 0 mm 4 m/s 697 mmHg 37%
    21:00 +30°C° 0 mm 3 m/s 697 mmHg 39%
    22:00 +30°C° 0 mm 3 m/s 697 mmHg 41%
    23:00 +29°C° 0 mm 3 m/s 697 mmHg 44%
    Voir plus